�������l�o���
Date,Time,MP-1(��Sv/h),MP-2(��Sv/h),MP-3(��Sv/h),MP-4(��Sv/h),MP-5(��Sv/h),MP-6(��Sv/h),MP-7(��Sv/h),MP-8(��Sv/h),����,����(m/s),���J
2024/05/14,00:00,0.476,0.722,0.460,0.895,0.633,0.303,0.530,0.500,�k�k��,6.5,��
2024/05/14,00:10,0.475,0.724,0.460,0.895,0.634,0.303,0.533,0.500,�k��,7.0,��
2024/05/14,00:20,0.474,0.721,0.462,0.897,0.636,0.304,0.531,0.500,�k��,7.6,��
2024/05/14,00:30,0.475,0.724,0.461,0.896,0.634,0.303,0.532,0.500,�k��,8.3,��
2024/05/14,00:40,0.474,0.724,0.462,0.897,0.635,0.303,0.533,0.499,�k��,7.9,��
2024/05/14,00:50,0.476,0.723,0.462,0.897,0.634,0.305,0.533,0.501,�k��,6.7,��
2024/05/14,01:00,0.475,0.722,0.462,0.897,0.636,0.303,0.532,0.501,�k��,6.9,��
2024/05/14,01:10,0.477,0.723,0.462,0.898,0.636,0.303,0.533,0.500,�k��,8.8,��
2024/05/14,01:20,0.475,0.724,0.462,0.898,0.637,0.303,0.532,0.501,�k��,8.5,��
2024/05/14,01:30,0.476,0.724,0.461,0.897,0.636,0.303,0.532,0.501,�k��,8.3,��
2024/05/14,01:40,0.475,0.723,0.463,0.898,0.637,0.304,0.533,0.501,�k��,6.8,��
2024/05/14,01:50,0.476,0.727,0.461,0.899,0.638,0.304,0.532,0.500,�k��,8.1,��
2024/05/14,02:00,0.477,0.724,0.461,0.897,0.639,0.304,0.533,0.501,�k��,7.2,��
2024/05/14,02:10,0.475,0.725,0.462,0.899,0.636,0.302,0.533,0.502,�k��,5.8,��
2024/05/14,02:20,0.476,0.726,0.462,0.900,0.639,0.303,0.533,0.501,�k��,6.4,��
2024/05/14,02:30,0.477,0.725,0.463,0.898,0.638,0.304,0.534,0.502,�k��,6.9,��
2024/05/14,02:40,0.475,0.726,0.462,0.899,0.639,0.304,0.532,0.502,�k��,7.5,��
2024/05/14,02:50,0.477,0.725,0.464,0.900,0.639,0.304,0.533,0.503,�k��,6.3,��
2024/05/14,03:00,0.476,0.726,0.462,0.899,0.639,0.304,0.534,0.502,�k��,5.7,��
2024/05/14,03:10,0.475,0.728,0.463,0.900,0.641,0.303,0.532,0.503,�k��,6.6,��
2024/05/14,03:20,0.476,0.726,0.461,0.901,0.640,0.305,0.533,0.502,�k��,6.8,��
2024/05/14,03:30,0.477,0.727,0.464,0.901,0.639,0.304,0.534,0.502,�k��,7.2,��
2024/05/14,03:40,0.478,0.725,0.462,0.902,0.641,0.304,0.533,0.503,�k��,7.1,��
2024/05/14,03:50,0.477,0.729,0.463,0.902,0.641,0.304,0.534,0.503,�k��,5.6,��
2024/05/14,04:00,0.476,0.727,0.465,0.900,0.640,0.304,0.535,0.503,�k��,5.0,��
2024/05/14,04:10,0.477,0.726,0.464,0.899,0.639,0.304,0.535,0.501,�k��,3.9,��
2024/05/14,04:20,0.476,0.727,0.464,0.899,0.641,0.305,0.534,0.504,�k��,3.8,��
2024/05/14,04:30,0.478,0.725,0.464,0.903,0.641,0.305,0.533,0.503,�k��,3.7,��
2024/05/14,04:40,0.478,0.725,0.463,0.901,0.639,0.303,0.536,0.503,�k��,3.2,��
2024/05/14,04:50,0.478,0.727,0.462,0.901,0.641,0.306,0.535,0.501,�k��,4.2,��
2024/05/14,05:00,0.479,0.728,0.463,0.900,0.642,0.304,0.534,0.501,�k��,4.1,��
2024/05/14,05:10,0.477,0.729,0.464,0.903,0.642,0.303,0.533,0.501,�k��,4.8,��
2024/05/14,05:20,0.479,0.728,0.463,0.901,0.642,0.304,0.535,0.503,�k��,4.0,��
2024/05/14,05:30,0.477,0.727,0.463,0.902,0.642,0.304,0.535,0.504,�k��,4.6,��
2024/05/14,05:40,0.479,0.726,0.463,0.901,0.641,0.305,0.536,0.503,�k��,4.4,��
2024/05/14,05:50,0.477,0.730,0.464,0.901,0.644,0.306,0.535,0.501,�k��,4.0,��
2024/05/14,06:00,0.478,0.730,0.464,0.902,0.643,0.304,0.536,0.503,�k��,4.1,��
2024/05/14,06:10,0.477,0.731,0.464,0.903,0.642,0.303,0.535,0.501,�k��,5.3,��
2024/05/14,06:20,0.478,0.730,0.464,0.904,0.644,0.305,0.535,0.504,�k��,5.3,��
2024/05/14,06:30,0.478,0.731,0.463,0.903,0.644,0.304,0.535,0.502,�k��,4.8,��
2024/05/14,06:40,0.479,0.729,0.463,0.902,0.643,0.304,0.535,0.504,�k��,5.2,��
2024/05/14,06:50,0.478,0.730,0.464,0.903,0.643,0.304,0.537,0.503,�k��,5.6,��
2024/05/14,07:00,0.479,0.730,0.463,0.903,0.645,0.307,0.536,0.502,�k��,5.1,��
2024/05/14,07:10,0.480,0.730,0.465,0.904,0.645,0.304,0.537,0.504,�k��,4.7,��
2024/05/14,07:20,0.480,0.730,0.465,0.906,0.643,0.304,0.536,0.503,�k�k��,3.4,��
2024/05/14,07:30,0.481,0.732,0.466,0.903,0.645,0.304,0.535,0.504,�k�k��,3.6,��
2024/05/14,07:40,0.481,0.730,0.467,0.904,0.646,0.304,0.537,0.504,�k,3.4,��
2024/05/14,07:50,0.479,0.731,0.467,0.904,0.646,0.305,0.537,0.504,�k�k��,3.0,��
2024/05/14,08:00,0.479,0.728,0.467,0.907,0.647,0.303,0.537,0.503,�k,3.2,��
2024/05/14,08:10,0.479,0.730,0.466,0.903,0.645,0.303,0.537,0.502,�k,3.4,��
2024/05/14,08:20,0.480,0.730,0.467,0.905,0.647,0.303,0.535,0.502,�k,4.9,��
2024/05/14,08:30,0.479,0.731,0.465,0.906,0.646,0.303,0.537,0.502,��,2.3,��
2024/05/14,08:40,0.479,0.729,0.466,0.907,0.645,0.304,0.535,0.502,�k�k��,1.9,��
2024/05/14,08:50,0.480,0.729,0.465,0.906,0.645,0.304,0.535,0.502,�k�k��,4.8,��
2024/05/14,09:00,0.480,0.729,0.466,0.905,0.645,0.302,0.536,0.502,���k��,1.9,��
2024/05/14,09:10,0.481,0.729,0.466,0.906,0.647,0.303,0.534,0.503,�k��,1.2,��
2024/05/14,09:20,0.480,0.730,0.467,0.906,0.644,0.301,0.534,0.502,�k��,4.4,��
2024/05/14,09:30,0.481,0.731,0.466,0.907,0.645,0.302,0.535,0.504,�k�k��,5.2,��
2024/05/14,09:40,0.479,0.729,0.467,0.906,0.644,0.303,0.536,0.502,�k�k��,6.6,��
2024/05/14,09:50,0.480,0.731,0.466,0.906,0.647,0.303,0.534,0.503,�k��,5.1,��
2024/05/14,10:00,0.481,0.732,0.468,0.906,0.647,0.303,0.535,0.503,�k�k��,6.6,��
2024/05/14,10:10,0.479,0.731,0.466,0.908,0.645,0.302,0.536,0.502,�k�k��,5.5,��
2024/05/14,10:20,0.481,0.730,0.468,0.907,0.647,0.302,0.534,0.502,�k�k��,6.1,��
2024/05/14,10:30,0.478,0.732,0.466,0.908,0.646,0.303,0.536,0.502,�k�k��,7.2,��
2024/05/14,10:40,0.480,0.730,0.467,0.907,0.646,0.302,0.536,0.501,�k,5.2,��
2024/05/14,10:50,0.482,0.731,0.467,0.909,0.647,0.302,0.536,0.502,�k�k��,3.8,��
2024/05/14,11:00,0.480,0.735,0.465,0.907,0.648,0.303,0.534,0.500,�k,2.9,��
2024/05/14,11:10,0.481,0.736,0.466,0.907,0.648,0.303,0.535,0.502,�k�k��,3.6,��
2024/05/14,11:20,0.481,0.733,0.467,0.908,0.646,0.303,0.535,0.503,�k�k��,3.4,��
2024/05/14,11:30,0.481,0.734,0.466,0.909,0.649,0.302,0.534,0.501,�k��,3.2,��
2024/05/14,11:40,0.481,0.733,0.467,0.907,0.649,0.303,0.536,0.504,�k�k��,3.1,��
2024/05/14,11:50,0.483,0.735,0.468,0.908,0.648,0.303,0.536,0.502,�k�k��,2.9,��
2024/05/14,12:00,0.482,0.735,0.466,0.906,0.649,0.304,0.537,0.503,�k,2.8,��
2024/05/14,12:10,0.483,0.735,0.468,0.909,0.649,0.303,0.536,0.503,�k,2.6,��
2024/05/14,12:20,0.483,0.736,0.469,0.907,0.651,0.305,0.536,0.503,�k�k��,2.6,��
2024/05/14,12:30,0.485,0.737,0.469,0.909,0.650,0.303,0.537,0.504,�k,3.8,��
2024/05/14,12:40,0.485,0.735,0.470,0.910,0.650,0.306,0.535,0.503,�k,3.8,��
2024/05/14,12:50,0.485,0.737,0.468,0.909,0.653,0.305,0.536,0.502,�k,4.1,��
2024/05/14,13:00,0.485,0.737,0.470,0.910,0.653,0.305,0.536,0.504,�k�k��,4.4,��
2024/05/14,13:10,0.485,0.737,0.471,0.910,0.650,0.306,0.537,0.504,�k�k��,4.5,��
2024/05/14,13:20,0.485,0.739,0.469,0.911,0.652,0.305,0.539,0.505,�k�k��,3.5,��
2024/05/14,13:30,0.486,0.740,0.469,0.913,0.653,0.305,0.538,0.505,�k,2.9,��
2024/05/14,13:40,0.485,0.740,0.471,0.911,0.653,0.306,0.538,0.505,�k�k��,2.6,��
2024/05/14,13:50,0.487,0.740,0.471,0.913,0.654,0.305,0.538,0.504,�k,2.8,��
2024/05/14,14:00,0.486,0.741,0.470,0.912,0.654,0.305,0.539,0.504,�k�k��,2.3,��
2024/05/14,14:10,0.487,0.739,0.470,0.911,0.656,0.306,0.538,0.504,�k��,2.6,��
2024/05/14,14:20,0.486,0.737,0.472,0.909,0.656,0.306,0.539,0.505,�k��,2.3,��
2024/05/14,14:30,0.485,0.740,0.470,0.909,0.655,0.306,0.539,0.504,�k��,2.6,��
2024/05/14,14:40,0.487,0.740,0.470,0.911,0.655,0.305,0.539,0.505,�k��,2.0,��
2024/05/14,14:50,0.487,0.739,0.473,0.912,0.654,0.304,0.538,0.505,���k��,2.6,��
2024/05/14,15:00,0.487,0.740,0.470,0.910,0.655,0.306,0.540,0.506,�k��,2.9,��
2024/05/14,15:10,0.487,0.743,0.472,0.911,0.656,0.306,0.538,0.505,�k��,2.9,��
2024/05/14,15:20,0.488,0.742,0.471,0.912,0.655,0.305,0.538,0.505,�k�k��,3.2,��
2024/05/14,15:30,0.487,0.744,0.472,0.912,0.656,0.306,0.539,0.505,���k��,2.6,��
2024/05/14,15:40,0.489,0.743,0.473,0.914,0.658,0.307,0.539,0.505,�k��,3.4,��
2024/05/14,15:50,0.487,0.742,0.473,0.914,0.657,0.307,0.540,0.506,�k��,2.9,��
2024/05/14,16:00,0.486,0.743,0.470,0.913,0.657,0.305,0.540,0.507,�k��,2.5,��
2024/05/14,16:10,0.488,0.742,0.472,0.913,0.658,0.306,0.539,0.506,�k��,2.8,��
2024/05/14,16:20,0.486,0.741,0.471,0.915,0.657,0.304,0.538,0.506,�k�k��,3.4,��
2024/05/14,16:30,0.489,0.745,0.471,0.916,0.656,0.306,0.540,0.506,�k�k��,3.1,��
2024/05/14,16:40,0.489,0.744,0.473,0.916,0.658,0.305,0.541,0.505,�k��,3.1,��
2024/05/14,16:50,0.486,0.742,0.471,0.915,0.657,0.307,0.538,0.506,�k�k��,3.5,��
2024/05/14,17:00,0.487,0.742,0.472,0.914,0.659,0.306,0.539,0.505,�k��,3.1,��
2024/05/14,17:10,0.489,0.742,0.472,0.915,0.658,0.307,0.541,0.504,�k�k��,2.6,��
2024/05/14,17:20,0.487,0.745,0.473,0.918,0.657,0.308,0.540,0.504,�k�k��,2.3,��
2024/05/14,17:30,0.487,0.745,0.473,0.913,0.656,0.308,0.540,0.506,�k�k��,2.3,��
2024/05/14,17:40,0.487,0.746,0.473,0.916,0.657,0.308,0.539,0.505,�k��,1.5,��
2024/05/14,17:50,0.486,0.748,0.473,0.913,0.659,0.307,0.540,0.504,�k��,1.5,��
2024/05/14,18:00,0.486,0.747,0.471,0.915,0.658,0.309,0.539,0.505,�k�k��,1.5,��
2024/05/14,18:10,0.485,0.749,0.471,0.918,0.661,0.308,0.540,0.507,�k,0.9,��
2024/05/14,18:20,0.490,0.747,0.472,0.915,0.661,0.307,0.541,0.507,�k�k��,1.1,��
2024/05/14,18:30,0.488,0.747,0.472,0.917,0.660,0.307,0.539,0.508,�k��,0.6,��
2024/05/14,18:40,0.488,0.747,0.471,0.919,0.658,0.307,0.542,0.508,�k��,0.9,��
2024/05/14,18:50,0.488,0.745,0.470,0.917,0.660,0.307,0.542,0.507,-,CALM,��
2024/05/14,19:00,0.487,0.747,0.473,0.917,0.658,0.308,0.537,0.507,�k��,0.6,��
2024/05/14,19:10,0.490,0.747,0.474,0.919,0.659,0.308,0.541,0.507,�k�k��,0.9,��
2024/05/14,19:20,0.489,0.746,0.474,0.918,0.658,0.308,0.540,0.505,�k��,1.2,��
2024/05/14,19:30,0.489,0.746,0.473,0.916,0.658,0.308,0.540,0.506,�k��,1.9,��
2024/05/14,19:40,0.488,0.746,0.472,0.917,0.660,0.307,0.543,0.506,�k��,2.0,��
2024/05/14,19:50,0.489,0.746,0.472,0.918,0.661,0.309,0.542,0.506,���k��,1.9,��
2024/05/14,20:00,0.488,0.745,0.473,0.917,0.660,0.307,0.543,0.507,�k��,2.0,��
2024/05/14,20:10,0.489,0.745,0.472,0.916,0.662,0.308,0.543,0.506,���k��,1.9,��
2024/05/14,20:20,0.489,0.747,0.472,0.919,0.660,0.308,0.543,0.506,���k��,1.5,��
2024/05/14,20:30,0.489,0.746,0.472,0.917,0.659,0.307,0.543,0.507,���k��,1.7,��
2024/05/14,20:40,0.489,0.745,0.473,0.918,0.661,0.308,0.544,0.506,���k��,1.5,��
2024/05/14,20:50,0.489,0.746,0.473,0.920,0.659,0.308,0.542,0.508,�k��,1.5,��
2024/05/14,21:00,0.490,0.746,0.474,0.918,0.661,0.307,0.543,0.506,�k��,1.5,��
2024/05/14,21:10,0.488,0.746,0.473,0.917,0.659,0.307,0.544,0.506,�k��,1.9,��
2024/05/14,21:20,0.489,0.745,0.473,0.918,0.660,0.308,0.544,0.506,�k��,2.0,��
2024/05/14,21:30,0.487,0.746,0.473,0.918,0.661,0.309,0.542,0.506,�k��,2.3,��
2024/05/14,21:40,0.488,0.746,0.472,0.918,0.660,0.306,0.543,0.506,���k��,1.5,��
2024/05/14,21:50,0.490,0.746,0.473,0.920,0.660,0.308,0.543,0.506,���k��,1.7,��
2024/05/14,22:00,0.488,0.745,0.474,0.918,0.660,0.308,0.544,0.506,���k��,1.5,��
2024/05/14,22:10,0.488,0.744,0.473,0.918,0.661,0.307,0.543,0.506,��,1.5,��
2024/05/14,22:20,0.488,0.746,0.472,0.920,0.661,0.307,0.544,0.508,���k��,1.5,��
2024/05/14,22:30,0.489,0.746,0.474,0.919,0.659,0.307,0.543,0.506,���k��,1.1,��
2024/05/14,22:40,0.488,0.742,0.473,0.919,0.661,0.307,0.544,0.506,���쐼,0.9,��
2024/05/14,22:50,0.489,0.746,0.473,0.919,0.659,0.308,0.544,0.506,-,CALM,��
2024/05/14,23:00,0.489,0.745,0.474,0.920,0.661,0.307,0.543,0.506,-,CALM,��
2024/05/14,23:10,0.489,0.744,0.473,0.919,0.660,0.307,0.544,0.506,-,CALM,��
2024/05/14,23:20,0.489,0.746,0.474,0.921,0.660,0.308,0.544,0.507,��,0.8,��
2024/05/14,23:30,0.488,0.745,0.472,0.920,0.660,0.307,0.544,0.506,-,CALM,��
2024/05/14,23:40,0.488,0.743,0.473,0.918,0.657,0.307,0.544,0.506,�k��,0.6,��
2024/05/14,23:50,0.488,0.745,0.472,0.919,0.661,0.306,0.543,0.506,-,CALM,��
